Raton, NM

5:43 PM MDT on May 22, 2017 (GMT -0600)
Raton Municipal-Crews

Weather History for KRTN - October, 2012

Change the Weather History Date:

Thursday, October 25, 2012

  Actual Average (KTAD) Record (KTAD)
Temperature  
Mean Temperature 42 °F -  
Max Temperature 52 °F 66 °F 84 °F (1959)
Min Temperature 32 °F 34 °F 17 °F (1997)
Degree Days  
Heating Degree Days 24    
Moisture  
Dew Point 24 °F    
Average Humidity 56    
Maximum Humidity 75    
Minimum Humidity 31    
Precipitation  
Precipitation 0.00 in - - ()
Sea Level Pressure  
Sea Level Pressure 29.99 in    
Wind  
Wind Speed 15 mph (NE)    
Max Wind Speed 22 mph    
Max Gust Speed 32 mph    
Visibility 10 miles    
Events      
Averages and records for this station are not official NWS values.
T = Trace of Precipitation, MM = Missing Value Source: NWS Daily Summary

Daily Weather History Graph

Daily Weather History Graph

Search for Another Location

Airport or City:

Trip Planner

Search our weather history database for the weather conditions in past years. The results will help you decide how hot, cold, wet, or windy it might be!

Date:

Astronomy

Oct. 25, 2012 Rise Set
Actual Time 7:15 AM MDT 6:08 PM MDT
Civil Twilight 6:48 AM MDT 6:34 PM MDT
Nautical Twilight 6:18 AM MDT 7:04 PM MDT
Astronomical Twilight 5:48 AM MDT 7:34 PM MDT
Moon 3:50 PM MDT (10/25) 3:19 AM MDT (10/25)
Length of Visible Light 11h 45m
Length of Day
10h 52m
Waxing Gibbous, 85% of the Moon is Illuminated
Oct 25
Waxing Gibbous
Oct 29
Full
Nov 6
Last Quarter
Nov 13
New
Nov 20
First Quarter

Hourly Weather History & Observations

Time (MDT) Temp. Windchill Dew Point Humidity Pressure Visibility Wind Dir Wind Speed Gust Speed Precip Events Conditions
12:32 AM 48.2 °F - 32.0 °F 54% 29.88 in 10.0 mi NNW 18.4 mph 32.2 mph N/A   Clear
12:53 AM 46.9 °F - 32.0 °F 56% 29.67 in 10.0 mi North 12.7 mph - N/A   Clear
1:53 AM 42.1 °F 33.3 °F 32.0 °F 67% 29.70 in 10.0 mi NNW 19.6 mph 27.6 mph N/A   Clear
2:53 AM 36.0 °F 26.3 °F 27.0 °F 70% 29.77 in 10.0 mi North 16.1 mph - N/A   Clear
3:53 AM 34.0 °F 22.1 °F 25.0 °F 70% 29.80 in 10.0 mi North 21.9 mph - N/A   Clear
4:53 AM 33.1 °F 23.0 °F 25.0 °F 72% 29.86 in 10.0 mi North 15.0 mph - N/A   Clear
5:53 AM 32.0 °F 22.1 °F 25.0 °F 75% 29.91 in 10.0 mi NNE 13.8 mph 25.3 mph N/A   Clear
6:53 AM 32.0 °F 24.2 °F 25.0 °F 75% 29.96 in 10.0 mi NE 9.2 mph - N/A   Clear
7:53 AM 33.1 °F 23.9 °F 24.1 °F 70% 30.01 in 10.0 mi NNE 12.7 mph - N/A   Clear
8:53 AM 35.1 °F 23.8 °F 24.1 °F 64% 29.99 in 10.0 mi NNE 20.7 mph 24.2 mph N/A   Clear
9:53 AM 36.0 °F 26.3 °F 24.1 °F 62% 30.00 in 10.0 mi NNE 16.1 mph 23.0 mph N/A   Scattered Clouds
10:53 AM 39.0 °F 31.0 °F 23.0 °F 53% 30.01 in 10.0 mi NE 13.8 mph 24.2 mph N/A   Clear
11:53 AM 41.0 °F 33.5 °F 23.0 °F 49% 29.99 in 10.0 mi NE 13.8 mph 20.7 mph N/A   Clear
12:53 PM 43.0 °F 37.2 °F 21.9 °F 43% 30.00 in 10.0 mi East 10.4 mph 16.1 mph N/A   Clear
1:53 PM 45.0 °F - 19.9 °F 37% 29.99 in 10.0 mi Calm Calm - N/A   Clear
2:53 PM 50.0 °F - 19.9 °F 31% 29.98 in 10.0 mi SSW 10.4 mph 18.4 mph N/A   Clear
3:53 PM 51.1 °F - 21.9 °F 32% 30.00 in 10.0 mi SSE 17.3 mph 26.5 mph N/A   Scattered Clouds
4:53 PM 45.0 °F 39.3 °F 21.9 °F 40% 30.05 in 10.0 mi SSE 11.5 mph - N/A   Overcast
5:53 PM 41.0 °F 33.5 °F 21.9 °F 47% 30.08 in 10.0 mi East 13.8 mph - N/A   Overcast
6:53 PM 39.9 °F 32.5 °F 21.9 °F 49% 30.14 in 10.0 mi East 12.7 mph - N/A   Overcast
7:53 PM 37.0 °F 29.8 °F 21.9 °F 54% 30.19 in 10.0 mi East 10.4 mph - N/A   Overcast
8:53 PM 36.0 °F 28.5 °F 21.9 °F 57% 30.19 in 10.0 mi East 10.4 mph - N/A   Overcast
9:53 PM 36.0 °F 31.1 °F 21.9 °F 57% 30.20 in 10.0 mi SSE 5.8 mph - N/A   Overcast
10:53 PM 35.1 °F 29.3 °F 21.9 °F 59% 30.19 in 10.0 mi South 6.9 mph - N/A   Overcast
11:53 PM 34.0 °F 25.0 °F 23.0 °F 64% 30.19 in 10.0 mi SW 12.7 mph - N/A   Overcast